Probability
0 0 0 0 0 0 0 0 0 0 0 0 0 0 0 0 0 0 0 0 0 0 0 0 0 0 0 0 0 0 0 0 0 0 0 0 0 0 0 0 0 0 0
0 0 0 0 0 0 0 0 0 0 0 0 0 0 0 0 0 0 0 0 0 0 0 0 0 0 0 0 0 0 0 0 0 0 0 0 0 0 0 0 0 0 0
0 0 0 0 0 0 0 0 0 0 0 0 0 0 0 0 0 0 0 0 0 0 0 0 0 0 0 0 0 0 0 0 0 0 0 0 0 0 0 0 0 0 0
0 0 0 0 0 0 0 0 0 0 0 0 0 0 0 0 0 0 0 0 0 0 0 0 0 0 0 0 0 0 0 0 0 0 0 0 0 0 0 0 0 0 0
0 0 0 0 0 0 0 0 0 0 0 0 0 0 0 0 0 0 0 0 0 0 0 0 0 0 0 0 0 0 0 0 0 0 0 0 0 0 0 0 0 0 0
0 0 0 0 0 0 0 0 0 0 0 0 0 0 0 0 0 0 0 0 0 0 0 0 0 0 0 0 0 0 0 0 0 0 0 0 0 0 0 0 0 0 0
0 0 0 0 0 0 0 0 0 0 0 0 0 0 0 0 0 0 0 0 0 0 0 0 0 0 0 0 0 0 0 0 0 0 0 0 0 0 0 0 0 0 0
0 0 0 0 0 0 0 0 0 0 0 0 0 0 0 0 0 0 0 0 0 0 0 0 0 0 0 0 0 0 0 0 0 0 0 0 0 0 0 0 0 0 0
0 0 0 0 0 0 0 0 0 0 0 0 0 0 0 0 0 0 0 0 0 0 0 0 0 0 0 0 0 0 0 0 0 0 0 0 0 0 0 0 0 0 0
0 0 0 0 0 0 0 0 0 0 0 0 0 0 0 0 0 0 0 0 0 0 0 0 0 0 0 0 0 0 0 0 0 0 0 0 0 0 0 0 0 0 0
0 0 0 0 0 0 0 0 0 0 0 0 0 0 0 0 0 0 0 0 0 0 0 0 0 0 0 0 0 0 0 0 0 0 0 0 0 0 0 0 0 0 0
0 0 0 0 0 0 0 0 0 0 0 0 0 0 0 0 0 0 0 0 0 0 0 0 0 0 0 0 0 0 0 0 0 0 0 0 0 0 0 0 0 0 0
0 0 0 0 0 0 0 0 0 0 0 0 0 0 0 0 0 0 0 0 0 0 0 0 0 0 0 0 0 0 0 0 0 0 0 0 0 0 0 0 0 0 0
0 0 0 0 0 0 0 0 0 0 0 0 0 0 0 0 0 0 0 0 0 0 0 0 0 0 0 0 0 0 0 0 0 0 0 0 0 0 0 0 0 0 0
0 0 0 0 0 0 0 0 0 0 0 0 0 0 0 0 0 0 0 0 0 0 0 0 0 0 0 0 0 0 0 0 0 0 0 0 0 0 0 0 0 0 0
0 0 0 0 0 0 0 0 0 0 0 0 0 0 0 0 0 0 0 0 0 0 0 0 0 0 0 0 0 0 0 0 0 0 0 0 0 0 0 0 0 0 0
0 0 0 0 0 0 0 0 0 0 0 0 0 0 0 0 0 0 0 0 0 0 0 0 0 0 0 0 0 0 0 0 0 0 0 0 0 0 0 0 0 0 0
0 0 0 0 0 0 0 0 0 0 0 0 0 0 0 0 0 0 0 0 0 0 0 0 0 0 0 0 0 0 0 0 0 0 0 0 0 0 0 0 0 0 0
0 0 0 0 0 0 0 0 0 0 0 0 0 0 0 0 0 0 0 0 0 0 0 0 0 0 0 0 0 0 0 0 0 0 0 0 0 0 0 0 0 0 0
0 0 0 0 0 0 0 0 0 0 0 0 0 0 0 0 0 0 0 0 0 0 0 0 0 0 0 0 0 0 0 0 0 0 0 0 0 0 0 0 0 0 0
0 0 0 0 0 0 0 0 0 0 0 0 0 0 0 0 0 0 0 0 0 0 0 0 0 0 0 0 0 0 0 0 0 0 0 0 0 0 0 0 0 0 0
0 0 0 0 0 0 0 0 0 0 0 0 0 0 0 0 0 0 0 0 0 0 0 0 0 0 0 0 0 0 0 0 0 0 0 0 0 0 0 0 0 0 0
0 0 0 0 0 0 0 0 0 0 0 0 0 0 0 0 0 0 0 0 0 0 0 0 0 0 0 0 0 0 0 0 0 0 0 0 0 0 0 0 0 0 0
0 0 0 0 0 0 0 0 0 0 0 0 0 0 0 0 0 0 0 0 0 0 0 0 0 0 0 0 0 0 0 0 0 0 0 0 0 0 0 0 0 0 0
0 0 0 0 0 0 0 0 0 0 0 0 0 0 0 0 0 0 0 0 0 0 0 0 0 0 0 0 0 0 0 0 0 0 0 0 0 0 0 0 0 0 0
0 0 0 0 0 0 0 0 0 0 0 0 0 0 0 0 0 0 0 0 0 0 0 0 0 0 0 0 0 0 0 0 0 0 0 0 0 0 0 0 0 0 0
Wind_Speed
2 2 1 1 1 1 1 1 0 1 1 1 1 2 2 3 2 2 1 6 7 6 8 9 10 10 11 11 11 10 10 10 9 9 8 9 9 8 8 8 7 7 7
3 2 2 1 1 1 1 1 1 1 1 1 1 1 2 2 2 2 1 2 4 5 6 8 9 10 10 11 11 11 10 10 10 9 8 8 8 8 8 8 7 7 6
4 3 2 2 1 1 2 2 2 2 1 1 0 1 1 1 1 2 2 1 1 3 5 7 8 9 10 11 11 11 11 10 10 9 9 8 8 8 8 8 8 7 6
4 4 3 2 1 2 2 2 2 2 1 1 0 0 0 0 0 1 1 1 1 1 3 6 7 8 10 10 11 11 11 11 10 10 10 10 9 9 8 8 8 8 7
4 4 3 2 2 2 2 2 2 1 1 1 1 1 1 1 1 1 1 1 1 1 1 3 6 7 9 11 10 11 12 12 11 11 12 12 11 10 10 9 9 9 9
4 4 3 3 3 3 2 2 3 2 2 1 2 2 2 2 1 1 1 1 1 2 2 3 2 4 7 9 9 10 11 12 12 12 12 12 12 12 11 11 10 10 10
4 4 4 3 3 3 2 3 2 3 3 1 2 2 3 3 2 1 1 1 1 2 2 3 2 2 2 6 7 9 10 11 11 12 12 12 13 12 12 12 11 11 11
4 4 4 3 3 3 3 2 2 2 2 2 2 2 2 2 2 2 1 1 1 1 2 3 3 3 3 2 3 7 9 10 11 11 12 12 12 12 12 12 12 12 12
3 4 5 4 3 3 2 2 2 3 2 2 1 3 3 2 1 2 2 1 1 0 1 1 3 3 3 3 3 5 7 8 9 10 11 11 11 11 12 13 13 13 13
3 4 4 4 4 3 3 2 2 2 3 2 1 2 1 2 2 0 2 1 2 1 1 1 2 2 3 3 4 5 6 6 7 8 8 9 9 10 11 12 13 14 14
2 3 4 4 4 3 3 2 2 2 2 2 2 2 2 2 2 2 1 2 2 1 1 2 2 2 2 3 3 5 6 6 6 6 6 7 7 8 9 11 12 13 14
1 3 3 3 3 3 3 3 3 3 2 2 2 2 2 2 2 2 2 1 1 2 2 2 2 2 2 3 4 6 6 6 6 6 6 6 6 7 8 9 11 12 13
2 4 4 4 3 3 4 3 3 3 2 3 2 2 1 1 2 2 2 1 1 2 3 2 2 2 3 2 3 6 6 6 7 7 6 6 6 6 7 8 9 10 11
4 4 5 5 5 4 4 4 3 3 2 2 3 2 2 1 2 2 3 3 1 1 2 3 2 2 2 3 4 5 5 7 7 8 7 7 7 7 7 7 8 8 9
3 4 5 5 5 5 5 5 3 3 3 3 3 3 2 1 1 2 2 2 3 2 2 3 2 2 2 2 4 4 5 7 8 9 9 9 9 9 9 9 9 9 9
4 4 5 5 5 5 5 5 3 4 4 3 3 3 2 2 2 2 2 2 2 3 3 2 3 2 2 3 4 5 6 8 9 10 10 11 11 11 11 11 11 11 11
5 5 5 5 5 6 5 5 5 5 5 4 4 4 5 3 3 3 2 2 3 3 4 3 2 2 3 4 3 3 5 5 6 10 12 12 13 13 13 13 12 12 12
4 5 4 5 5 6 6 7 7 6 6 6 6 5 5 4 4 4 3 4 4 5 5 5 3 3 4 4 4 4 5 5 6 9 12 14 14 14 15 14 14 14 14
3 3 4 5 5 5 6 6 6 6 6 6 6 6 5 5 5 4 5 4 4 4 5 5 5 3 3 3 4 4 5 5 6 8 11 13 15 15 16 16 15 15 15
3 3 3 3 3 3 3 4 4 5 5 5 5 5 4 5 5 5 4 5 4 4 5 5 5 5 4 4 3 4 5 5 6 6 8 9 11 14 15 16 16 16 16
3 2 2 1 1 1 1 2 3 3 2 2 2 2 2 2 3 3 2 3 3 4 4 5 5 5 5 4 4 4 6 7 7 6 7 7 7 7 9 11 14 16 16
3 3 3 3 3 2 3 2 2 2 2 1 1 2 2 2 3 3 2 1 1 2 3 4 4 6 6 5 4 5 6 6 7 3 4 6 5 8 8 8 11 14 16
5 6 5 6 5 5 6 6 6 4 4 3 3 3 3 4 3 2 2 3 2 2 3 4 5 6 6 5 5 7 7 8 9 6 6 10 8 10 9 10 14 16 17
6 6 6 6 6 7 8 8 8 6 5 5 4 4 3 3 4 4 3 3 3 3 4 3 4 6 6 6 6 7 9 10 10 8 7 10 10 11 10 9 13 16 17
7 7 6 7 7 7 9 8 7 5 5 5 4 4 4 3 6 7 4 4 5 5 4 5 7 8 11 12 9 6 6 7 9 7 5 7 9 10 10 10 11 15 17
7 7 8 7 7 7 9 10 7 4 4 3 3 3 5 5 6 7 4 4 5 6 6 7 7 8 8 9 10 7 7 7 8 7 4 5 7 6 8 7 7 8 10
Wind_Direction
144 128 114 113 121 115 132 133 128 138 115 124 175 175 180 171 160 152 171 189 184 184 184 182 185 187 182 180 178 178 179 178 175 173 173 171 171 172 169 167 165 162 161
135 126 116 119 115 125 132 133 136 131 119 140 202 212 198 174 170 166 168 198 194 186 188 191 193 197 195 190 189 186 186 186 184 182 182 179 180 183 182 179 178 175 171
130 126 120 114 107 114 114 99 92 84 101 137 202 252 227 177 168 174 172 160 188 200 196 201 201 203 203 201 199 196 193 194 191 189 189 187 188 191 191 189 191 187 184
129 123 117 110 106 104 104 106 92 88 78 98 154 295 322 22 76 159 166 164 173 190 211 217 212 208 210 211 211 207 202 200 197 196 195 195 196 198 199 198 199 195 193
125 121 117 111 107 98 96 111 82 92 98 97 122 53 18 5 353 311 242 211 197 200 214 233 226 219 219 220 219 217 212 208 204 203 204 204 205 204 204 206 206 204 201
124 118 111 104 103 99 88 84 88 71 78 85 82 62 28 8 15 356 302 269 232 227 222 224 226 233 231 228 223 223 219 215 212 211 211 212 211 209 208 211 213 211 209
127 119 112 103 103 105 108 106 96 80 57 50 80 50 21 22 33 10 329 285 262 247 221 217 212 213 233 238 231 227 225 223 221 217 216 217 217 214 212 214 216 216 216
136 130 124 119 114 108 96 94 110 103 65 45 108 99 45 3 2 10 347 299 286 273 232 222 212 208 214 224 237 235 230 226 227 223 220 220 222 220 217 217 219 220 221
140 132 134 128 125 121 120 113 124 128 123 67 64 136 142 200 298 338 1 9 346 313 268 241 219 215 211 214 229 243 242 233 230 231 227 224 224 225 224 223 222 221 222
142 140 136 137 137 135 136 141 125 129 133 131 84 59 102 145 147 348 335 350 342 307 291 272 252 229 219 218 227 233 238 234 229 232 230 227 226 227 228 230 230 227 225
144 146 143 145 146 146 146 134 122 123 126 142 147 132 105 79 92 140 221 320 339 322 296 275 273 255 235 226 228 233 231 226 226 229 230 231 230 229 230 233 237 237 233
158 166 159 157 159 157 158 152 140 132 127 127 130 137 147 149 159 147 164 225 286 305 311 285 256 250 244 233 238 237 228 220 220 223 229 236 238 239 241 242 244 244 243
191 196 178 175 176 178 169 155 150 153 150 143 144 139 142 151 150 146 142 154 251 304 313 297 264 255 251 239 247 250 237 225 221 224 229 237 244 248 252 254 255 254 251
197 191 188 189 189 182 175 166 161 171 162 161 159 152 149 161 165 162 156 147 141 311 305 288 299 259 255 248 248 251 248 236 231 229 233 239 245 251 256 261 263 263 260
195 193 194 194 193 187 181 172 182 186 173 180 182 180 181 189 181 176 164 160 158 200 265 278 283 289 266 251 249 239 241 245 243 241 242 245 248 250 253 257 260 261 261
198 190 197 199 197 193 186 182 189 193 187 195 192 192 204 208 201 190 182 180 175 179 227 255 257 277 286 276 248 238 242 249 251 249 247 248 250 251 252 253 254 254 255
200 201 201 200 201 199 191 190 200 194 201 207 203 204 218 208 206 205 197 190 192 185 224 259 245 259 263 267 273 253 249 248 252 251 251 251 250 250 251 252 252 251 251
204 202 193 194 202 202 196 196 204 200 204 212 213 210 223 213 215 213 204 209 210 205 218 253 254 247 249 258 263 266 260 251 249 252 250 250 250 249 248 248 249 249 249
197 192 186 197 206 203 201 205 205 204 205 212 210 211 222 214 228 225 219 223 226 223 221 244 264 252 256 254 264 267 265 263 260 256 251 250 249 248 247 246 246 247 247
174 179 190 196 201 198 203 207 207 214 218 223 219 218 225 224 237 239 234 235 234 235 231 242 261 266 265 260 252 267 277 267 267 269 261 258 253 250 247 245 245 244 244
158 150 134 134 155 159 197 196 201 205 211 232 238 223 224 231 242 242 248 250 242 245 248 253 264 272 273 267 265 266 276 285 276 259 263 262 259 259 256 251 247 245 243
88 87 86 74 60 54 57 94 129 115 108 103 59 50 56 38 32 36 25 9 325 255 260 259 268 274 281 281 281 276 282 286 285 257 257 272 262 262 260 255 248 244 243
78 76 76 81 76 62 66 74 83 88 81 76 73 62 58 48 38 14 358 355 332 309 282 265 272 278 286 292 295 288 277 271 270 278 279 279 270 267 264 260 246 242 243
77 79 75 77 78 63 67 75 80 81 79 71 66 65 62 34 23 9 356 350 328 313 297 280 268 276 280 283 274 276 279 278 272 265 256 270 272 269 269 262 250 244 244
77 72 67 64 67 54 54 67 75 75 73 64 53 44 38 30 10 8 1 337 323 316 308 305 294 290 287 285 281 279 275 275 279 276 249 259 273 276 274 268 257 244 243
82 78 69 60 62 57 51 59 70 72 68 52 39 29 21 5 353 356 349 331 318 314 320 320 312 306 298 293 289 270 267 272 278 282 254 253 276 287 283 268 264 266 259